Tracking 31027 objects as of 19-Jul-2025
HD Live streaming from Space Station
objects crossing your sky now

STARLINK-6036

Track STARLINK-6036 now!
10-day predictions
STARLINK-6036 is classified as:


NORAD ID: 56800
Int'l Code: 2023-078AK
Perigee: 576.3 km
Apogee: 582.1 km
Inclination: 70.0 °
Period: 96.1 minutes
Semi major axis: 6950 km
RCS: Unknown
Launch date: May 31, 2023
Source: United States (US)
Launch site: AIR FORCE WESTERN TEST RANGE (AFWTR)
Your satellite tracking list
SL-16 DEB
Track 1 satellite(s)




NASA's NSSDC Master Catalog

Two Line Element Set (TLE):
1 56800U 23078AK  25199.86062419 -.00000199  00000-0 -88818-5 0  9990
2 56800  69.9989 214.0681 0004195 268.2347  91.8331 14.98329062117653
Source of the keplerian elements: AFSPC